Printer-friendly version

IAU Minor Planet Center

Minor Planet Center

MPEC 2006-R14 : 2005 UU3

The following Minor Planet Electronic Circular may be linked-to from your own Web pages, but must not otherwise be redistributed electronically.


Read MPEC 2006-R13 Read MPEC 2006-R15


M.P.E.C. 2006-R14                                Issued 2006 Sept. 6, 13:14 UT

     The Minor Planet Electronic Circulars contain information on unusual
         minor planets and routine data on comets.  They are published
   on behalf of Commission 20 of the International Astronomical Union by the
          Minor Planet Center, Smithsonian Astrophysical Observatory,
                          Cambridge, MA 02138, U.S.A.

                  Supported in part by the Brinson Foundation
                  Supported in part by the TABASGO Foundation
             Prepared using the Tamkin Foundation Computer Network

                              MPC@CFA.HARVARD.EDU
          URL http://cfa-www.harvard.edu/iau/mpc.html  ISSN 1523-6714

                                   2005 UU3

                           Revision to MPEC 2005-U69

Additional Observations:
     K05U03U 2C2006 07 26.50957823 15 02.651-38 43 23.72                ER014568
     K05U03U 2C2006 07 26.51690723 15 01.752-38 43 31.37         23.8 R ER014568
     K05U03U 2C2006 07 26.53331223 14 59.766-38 43 48.81                ER014568
     K05U03U 2C2006 09 04.38420021 34 10.361-42 32 00.00                ER014568
     K05U03U 2C2006 09 04.39143421 34 09.442-42 31 56.69         23.6 R ER014568
     K05U03U 2C2006 09 04.39874121 34 08.500-42 31 53.09                ER014568

Observer details:
568 Mauna Kea.  Observer F. Bernardi.  Measurers F. Bernardi, D. J. Tholen.
    2.24-m University of Hawaii reflector + 2048 CCD.

First and last observations above in comparison with prediction:
Residuals in seconds of arc, reference and Delta-T
060726 568  0.1- 19.3-    060904 568  0.4+ 15.7-    MPO 97872   -0.0018 day

Orbital elements:
2005 UU3                                                 Earth MOID = 0.1402 AU
Epoch 2006 Sept. 22.0 TT = JDT 2454000.5                MPC
M 150.56107              (2000.0)            P               Q
n   0.68373211     Peri.  128.21102     -0.95116984     -0.27322487
a   1.2760824      Node    36.57878     +0.14832983     -0.81261641
e   0.4757877      Incl.   13.94482     +0.27069208     -0.51478417
P   1.44           H   22.0           G   0.15           U   3
Residuals in seconds of arc
051025 G96  0.6-  0.3-    051027 G96  0.8+  0.2-    051125 G96  0.5-  0.3+
051025 G96  0.8-  0.2-    051027 G96  0.1+  0.1+    051206 291  0.5+  0.4+
051025 G96  0.4-  0.2-    051028 G96  0.5-  0.1-    051206 291  0.6-  1.4-
051025 G96  0.0   0.3+    051028 G96  0.0   0.3-    051206 291  0.5+  0.0
051025 G96  0.1-  0.1-    051028 G96  1.1+  0.5-    051223 291  0.2-  0.3+
051025 G96  0.8-  0.2-    051106 291  0.1-  0.1+    051223 291  0.1-  0.1+
051025 G96  0.3-  0.3-    051106 291  0.1+  0.2-    060726 568  0.1+  0.2-
051025 G96  0.4-  0.4-    051106 291  0.4-  0.1+    060726 568  0.0   0.1-
051025 J95  1.4+  0.6+    051110 291  0.4+  0.3+    060726 568  0.0   0.3-
051025 J95  0.2+  0.1-    051110 291  0.7-  0.3-    060904 568  0.0   0.2+
051027 G96  0.0   0.0     051110 291  0.0   0.3-    060904 568  0.1+  0.2+
051027 G96  0.2-  0.6-    051125 696  0.0   0.1+    060904 568  0.0   0.4+
051027 G96  0.1+  0.4-    051125 696  0.3-  0.5+
051027 G96  0.1-  0.3-    051125 G96  0.4-  0.3+

Ephemeris:
2005 UU3                 a,e,i = 1.28, 0.48, 14                  q = 0.6689
Date    TT    R. A. (2000) Decl.     Delta      r     Elong.  Phase     V
2006 09 02    21 39.24   -42 48.7    0.895    1.804   142.5    19.9    24.0
2006 09 12    21 20.69   -41 20.8    0.975    1.827   134.4    23.2    24.4
2006 09 22    21 09.27   -39 20.6    1.070    1.846   125.7    26.2    24.7
2006 10 02    21 04.37   -37 05.2    1.177    1.861   117.2    28.6    25.0

Timothy B. Spahr             (C) Copyright 2006 MPC           M.P.E.C. 2006-R14

Read MPEC 2006-R13 Read MPEC 2006-R15


Our Web policy. Index to the CBAT/MPC/ICQ pages.


Valid HTML 4.01!